Regional Weather Roundup
Issued by NWS

Home | Current Version | Previous Version | Text Only | Print | Product List | Glossary On
Versions: 1 2 3 4 5 6 7 8 9 10 11 12 13 14 15 16 17 18 19 20 21 22 23 24 25 26 27 28 29 30 31 32 33 34 35 36 37 38 39 40 41 42 43 44 45 46 47 48
000
ASUS44 KBMX 291810
RWRAL

ALABAMA REGIONAL WEATHER ROUNDUP
NATIONAL WEATHER SERVICE BIRMINGHAM AL
100 PM CDT SAT AUG 29 2015

NOTE: "FAIR" INDICATES FEW OR NO CLOUDS BELOW 12,000 FEET
WITH NO SIGNIFICANT WEATHER AND/OR OBSTRUCTIONS TO VISIBILITY.

THE REMARK "TC" DENOTES TEMPERATURE IN DEGREES CELSIUS.

ALZ001>011-014-016>018-020-291900-
NORTH ALABAMA

CITY           SKY/WX    TMP DP  RH WIND       PRES   REMARKS
MUSCLE SHOALS  PTSUNNY   82  70  66 SW5       30.11F
6HR MIN TEMP:  69; 6HR MAX TEMP:  86;

HUNTSVILLE     CLOUDY    85  70  60 SE9       30.12F
6HR MIN TEMP:  73; 6HR MAX TEMP:  86;

DECATUR        CLOUDY    72  68  87 NW9       30.13S THUNDER
6HR MIN TEMP:  70; 6HR MAX TEMP:  80; 6HR PCP:  0.01;

HALEYVILLE     TSTM      72  71  96 CALM      30.17F FOG
6HR MIN TEMP:  70; 6HR MAX TEMP:  81; 6HR PCP:  0.01;

GADSDEN        PTSUNNY   84  68  58 E9        30.12F
6HR MIN TEMP:  72; 6HR MAX TEMP:  84;

$$

ALZ012-013-022-023-030>036-040>044-291900-
WEST CENTRAL ALABAMA

CITY           SKY/WX    TMP DP  RH WIND       PRES   REMARKS
TUSCALOOSA     PTSUNNY   86  71  60 S8        30.09F HX  91
6HR MIN TEMP:  73; 6HR MAX TEMP:  86;

$$

ALZ015-024>027-033>036-040>044-291900-
CENTRAL ALABAMA

CITY           SKY/WX    TMP DP  RH WIND       PRES   REMARKS
BIRMINGHAM     PTSUNNY   84  70  62 SE8       30.14F THUNDER
6HR MIN TEMP:  73; 6HR MAX TEMP:  84;

MONTGOMERY     CLOUDY    86  70  58 VRB3      30.10F HX  90
6HR MIN TEMP:  72; 6HR MAX TEMP:  85; 6HR PCP:  0.01;

SHELBY CO ARPT PTSUNNY   79  72  79 VRB5      30.13F THUNDER
6HR MIN TEMP:  73; 6HR MAX TEMP:  85;

MAXWELL AFB    CLOUDY    83  72  69 N1        30.10F
6HR MIN TEMP:  73; 6HR MAX TEMP:  83;

GREENVILLE     FAIR      83  71  67 CALM      30.11F
6HR MIN TEMP:  71; 6HR MAX TEMP:  83; 6HR PCP: TRACE;

$$

ALZ019-021-028-029-037-038-045>048-291900-
EAST CENTRAL ALABAMA

CITY           SKY/WX    TMP DP  RH WIND       PRES   REMARKS
ANNISTON       CLOUDY    81  72  74 S9        30.15F
6HR MIN TEMP:  74; 6HR MAX TEMP:  83; 6HR PCP:  0.12;

ALEXANDER CITY CLOUDY    81  71  72 E3        30.15F
6HR MIN TEMP:  74; 6HR MAX TEMP:  81;

AUBURN         CLOUDY    84  70  61 E10       30.15F THUNDER
6HR MIN TEMP:  72; 6HR MAX TEMP:  84;

$$

ALZ051>064-291900-
SOUTHWEST ALABAMA

CITY           SKY/WX    TMP DP  RH WIND       PRES   REMARKS
MOBILE         MOSUNNY   88  70  55 VRB5      30.09F HX  93
6HR MIN TEMP:  70; 6HR MAX TEMP:  88;

BROOKLEY FIELD MOSUNNY   86  72  62 SE6       30.09F HX  92
6HR MIN TEMP:  70; 6HR MAX TEMP:  87;

EVERGREEN      CLOUDY    79  72  79 NE5       30.12F
6HR MIN TEMP:  70; 6HR MAX TEMP:  79; 6HR PCP:  0.17;

$$

ALZ049-050-065>069-291900-
SOUTHEAST ALABAMA

CITY           SKY/WX    TMP DP  RH WIND       PRES   REMARKS
DOTHAN         CLOUDY    84  71  65 SE3       30.15F
6HR MIN TEMP:  73; 6HR MAX TEMP:  84; 6HR PCP: TRACE;

OZARK          PTSUNNY   83  73  71 E6        30.11F
6HR MIN TEMP:  71; 6HR MAX TEMP:  83;

TROY           CLOUDY    83  71  67 CALM      30.12F
6HR MIN TEMP:  72; 6HR MAX TEMP:  83; 6HR PCP: TRACE;

EUFAULA        PTSUNNY   84  71  65 SE7       30.12F
6HR MIN TEMP:  73; 6HR MAX TEMP:  87; 6HR PCP: TRACE;

$$



USA.gov is the U.S. government's official web portal to all federal, state and local government web resources and services.